AirNav   Everest Fuels
 
 406 users online  

PS01 Sterling Heliport
Croydon, Pennsylvania, USA

GOING TO CROYDON?


FAA INFORMATION EFFECTIVE 10 SEPTEMBER 2020

Location

FAA Identifier: PS01
Lat/Long: 40-04-52.6000N 074-53-39.2000W
40-04.876667N 074-53.653333W
40.0812778,-74.8942222
(estimated)
Elevation: 24 ft. / 7 m (estimated)
From city: 1 mile SE of CROYDON, PA
Time zone: UTC -4 (UTC -5 during Standard Time)
Zip code: 19021

Heliport Operations

Heliport use: Private use. Permission required prior to landing
Activation date: 10/2006
Control tower: no
ARTCC: NEW YORK CENTER
FSS: WILLIAMSPORT FLIGHT SERVICE STATION
Attendance: MON-FRI 0800-1700
Wind indicator: yes
Segmented circle: no

Heliport Communications

WX ASOS at PNE (5 nm W): 121.15 (215-677-0146)
WX ASOS at VAY (9 nm S): 119.325 (609-267-1176)
WX ASOS at TTN (12 nm N): 126.775 (609-538-8690)
WX AWOS-3 at LOM (17 nm W): 118.925 (215-646-1068)
WX ASOS at DYL (18 nm NW): 118.875 (215-345-0392)

Nearby radio navigation aids

VOR radial/distance  VOR name  Freq  Var
ARDr187/10.3YARDLEY VOR/DME108.2010W
GXUr299/14.3MC GUIRE VORTAC110.6012W
RBVr258/19.7ROBBINSVILLE VORTAC113.8010W
CYNr317/26.5COYLE VORTAC113.4010W
SBJr203/30.9SOLBERG VOR/DME112.9010W
PTWr114/31.7POTTSTOWN VORTAC116.5009W
OODr045/32.7WOODSTOWN VORTAC112.8010W
VCNr016/32.8CEDAR LAKE VOR/DME115.2010W
COLr259/36.4COLTS NECK VOR/DME115.4011W
MXEr084/37.0MODENA VORTAC113.2009W

 
NDB name  Hdg/Dist  Freq  Var  ID
AMBLER110/18.127512WING .. -. --.
LAKEHURST286/25.839611WNEL -. . .-..

Heliport Services

Airframe service: MAJOR
Powerplant service: MAJOR

Runway Information

Helipad H1

Dimensions: 50 x 50 ft. / 15 x 15 m
Surface: concrete, in good condition
Traffic pattern: leftleft

Heliport Ownership and Management from official FAA records

Ownership: Privately-owned
Owner: STERLING HELICOPTER
1226 RIVER ROAD
CROYDON, PA 19021
Phone 215-271-2510
Manager: PHIL BIDDEN
1226 RIVER ROAD
CROYDON, PA 19021
Phone 215-271-2510

Additional Remarks

CALL PRIOR TO USE FOR PERMISSION, NOISE ABATEMENT PROC & PREF FLT ROUTE.
AVOID OVR FLT OF HOMES & SCHOOL 0.5 NM NE.
FOR CD CTC PHILADELPHIA APCH AT 800-354-9884.

Instrument Procedures

There are no published instrument procedures at PS01.

Some nearby airports with instrument procedures:

KPNE - Northeast Philadelphia Airport (5 nm W)
KVAY - South Jersey Regional Airport (9 nm S)
N14 - Flying W Airport (10 nm SE)
KTTN - Trenton Mercer Airport (12 nm N)
KWRI - McGuire Field (Joint Base Mc Guire Dix Lakehurst) Airport (14 nm E)
N87 - Trenton-Robbinsville Airport (16 nm NE)
KLOM - Wings Field Airport (17 nm W)
19N - Camden County Airport (18 nm S)
KDYL - Doylestown Airport (18 nm NW)
 
Loc | Ops | Rwys | IFR | FBO | Links
Com | Nav | Svcs | Stats | Notes
Area around PS01 (Sterling Heliport)
 
Road maps at: MapQuest Bing Google
 
Aerial photo
No photo
 
Sectional chart

 
Airport distance calculator
Flying to Sterling Heliport? Find the distance to fly.

From to PS01

Sunrise and sunset
Times for 26-Sep-2020
 Local
(UTC-4)
 Zulu
(UTC)
Morning civil twilight06:2610:26
Sunrise06:5310:53
Sunset18:4822:48
Evening civil twilight19:1523:15

Current date and time
Zulu (UTC)  26-Sep-2020 07:47:30
Local (UTC-4)  26-Sep-2020 03:47:30
 
METAR
KPNE 
6nm W 
260654Z AUTO 00000KT 10SM CLR 18/16 A3010 RMK AO2 SLP193 T01830161
KVAY 
9nm S 
ASOS 119.325 609-267-1176
260654Z AUTO 00000KT 8SM CLR 16/16 A3009 RMK AO2 SLP188 T01610156
KTTN 
13nm N 
ASOS 133.70 609-538-8690
260653Z AUTO 00000KT 8SM OVC120 17/16 A3009 RMK AO2 SLP183 T01670161
KWRI 
15nm E 
260656Z AUTO 00000KT 10SM OVC120 16/16 A3009 RMK AO2 SLP188 T01620160 $
KLOM 
17nm W 
260735Z AUTO 00000KT 10SM BKN040 OVC047 15/15 A3010 RMK AO2 T01490147
KDYL 
18nm NW 
260654Z AUTO 00000KT 10SM BKN110 17/14 A3009 RMK AO2 SLP186 T01670144
TAF
KPNE 
6nm W 
260522Z 2606/2706 VRB02KT P6SM BKN120 FM261000 VRB03KT P6SM VCSH SCT010 OVC025 FM261400 12005KT P6SM -SHRA SCT010 OVC020 FM261900 17007KT P6SM BKN030 FM270000 17005KT P6SM -DZ BKN015
KTTN 
13nm N 
260522Z 2606/2706 VRB02KT P6SM BKN120 FM260900 VRB02KT P6SM SCT010 OVC040 FM261400 12005KT P6SM VCSH SCT010 OVC020 FM262000 16007KT P6SM VCSH BKN030 FM262300 17005KT 6SM -DZ BR BKN015
KWRI 
15nm E 
260200Z 2602/2708 18003KT 9999 SCT020 BKN040 QNH3009INS BECMG 2607/2608 12006KT 4800 BR BKN012 OVC025 QNH3007INS TEMPO 2608/2612 1600 BKN008 OVC012 BECMG 2615/2616 14009KT 9000 -SHRA BKN015 OVC030 QNH3000INS BECMG 2700/2701 17005KT 9999 NSW BKN015 BKN040 QNH2999INS TEMPO 2706/2708 8000 BR BKN009 TX23/2620Z TN15/2610Z
NOTAMs
Click for the latest NOTAMs
NOTAMs are issued by the DoD/FAA and will open in a separate window not controlled by AirNav.

 

 
 

Would you like to see your business listed on this page?

 If your business provides an interesting product or service to pilots, flight crews, aircraft, or users of the Sterling Heliport, you should consider listing it here.  To start the listing process, click on the button below
 
Add a business
 

Other Pages about Sterling Heliport

Update a link
 
Copyright © AirNav, LLC. All rights reserved. Privacy Policy  Contact